Theta_e
352 357 364 364 366 364 364 363 360 359 359 359 360 360 362 362 361 362 361 361 360 359 357 355 355 356 356 356 355 355 354 353 353 354 354 356 356 355 354 352 353 349 350
353 356 364 365 365 365 364 362 359 359 360 360 360 361 362 361 361 361 360 360 359 358 357 357 356 355 354 353 352 351 350 352 353 353 352 352 357 359 356 353 351 350 357
350 357 361 364 365 364 363 360 359 360 360 360 361 361 362 361 360 361 360 360 360 358 357 356 355 354 353 351 349 348 350 351 352 353 352 345 341 360 356 353 354 357 358
351 355 359 362 363 363 361 359 359 360 361 362 361 361 361 360 360 360 360 361 359 358 357 356 353 351 349 347 346 349 350 351 352 353 344 342 342 361 355 350 348 352 355
350 352 361 363 362 362 361 360 360 360 361 361 361 361 360 360 360 360 361 361 359 358 356 353 349 347 346 346 349 350 351 352 351 349 339 343 342 345 348 352 353 353 354
345 353 361 362 362 362 362 361 360 361 361 360 360 359 359 360 360 361 360 360 356 353 351 348 346 345 346 349 350 351 351 352 352 344 347 349 349 358 359 359 358 358 358
344 356 360 362 362 361 362 361 360 360 359 359 359 359 359 360 360 359 358 357 355 352 348 346 346 349 349 349 350 350 352 352 347 344 345 352 354 359 362 360 361 360 359
349 353 358 361 362 361 361 360 359 359 359 359 358 359 358 358 357 357 357 355 353 351 346 345 349 349 350 350 352 352 353 353 348 344 349 351 357 359 358 357 357 357 356
350 349 355 358 361 362 361 359 359 359 359 358 358 358 357 357 357 356 354 353 351 346 346 348 350 351 352 353 353 353 354 356 349 347 352 351 356 355 352 350 349 350 350
347 346 349 354 355 356 357 360 359 359 358 358 358 357 357 356 355 354 352 351 349 347 349 351 353 354 354 354 354 354 355 358 349 348 348 349 352 349 346 345 344 345 345
345 344 344 345 348 349 352 356 357 357 357 357 356 356 352 345 346 347 347 350 350 351 352 354 354 354 354 354 354 355 357 351 351 349 345 348 347 344 342 341 340 341 342
342 342 343 344 344 343 346 352 350 350 348 346 345 348 344 345 343 340 350 351 352 353 354 354 355 355 356 350 353 356 351 352 345 345 341 342 341 339 337 335 334 335 337
344 342 343 347 346 340 343 345 345 348 346 347 347 346 345 348 351 347 346 341 345 348 348 350 351 352 354 355 355 350 348 342 337 341 337 338 337 334 332 331 331 332 334
343 343 344 347 348 345 345 340 344 345 347 347 348 350 351 354 351 347 344 347 349 350 352 354 355 360 356 352 350 345 339 334 332 335 335 335 336 331 330 331 331 330 333
343 343 344 347 350 354 345 340 343 344 346 348 353 354 357 354 352 352 349 349 353 354 351 358 359 356 353 350 345 339 334 334 331 333 333 333 333 330 329 331 330 329 331
343 345 346 348 353 354 350 347 348 350 347 350 352 353 356 353 357 349 351 351 351 356 358 354 354 353 349 343 339 332 331 334 333 332 329 327 334 331 329 329 330 328 329
348 347 351 350 355 361 361 360 358 356 348 350 349 355 351 356 357 351 348 351 356 362 359 355 351 349 345 331 330 329 331 332 333 331 331 327 327 334 330 330 330 330 327
350 354 351 350 353 362 362 361 356 358 359 355 355 351 350 355 358 356 350 352 362 357 355 350 336 334 331 329 327 333 331 334 330 330 329 328 327 324 330 337 332 331 324
352 354 351 353 351 357 362 361 360 365 358 358 356 352 352 350 349 353 350 359 356 352 343 339 334 334 329 328 325 326 329 334 330 328 328 328 327 326 325 330 332 331 326
354 355 354 354 353 356 355 359 358 361 357 360 353 350 350 349 348 352 355 356 355 344 339 335 335 331 330 328 326 323 327 328 329 328 327 324 328 325 323 324 325 324 332
354 354 355 354 355 354 353 352 350 350 354 353 350 352 348 346 351 356 351 350 347 340 336 336 333 331 329 328 326 322 319 322 323 324 322 327 326 324 325 327 322 324 323
350 352 354 352 356 354 354 353 352 352 348 348 350 348 351 356 357 351 351 347 344 336 335 334 333 331 328 327 317 316 310 316 318 322 322 324 325 325 324 322 322 323 323
350 350 351 352 355 356 358 356 347 348 348 353 354 353 355 355 354 350 351 348 344 342 335 334 329 327 322 326 322 318 313 310 313 321 319 320 321 321 319 322 321 323 323
351 352 352 352 351 353 351 348 345 341 338 352 352 351 351 352 350 348 347 342 342 337 330 329 328 327 326 319 320 321 322 318 310 308 316 317 319 318 320 319 320 322 324
352 352 352 352 353 351 348 345 345 341 350 350 350 346 346 346 345 344 342 338 335 330 328 329 327 326 322 319 317 316 317 316 316 312 307 311 315 317 318 317 321 317 320
350 351 351 351 351 351 348 352 347 350 347 343 342 338 339 341 340 338 332 330 327 326 328 327 326 322 321 320 319 319 314 311 311 311 309 309 310 313 316 318 318 317 317
Wind_Speed
19 19 19 18 18 18 17 17 17 17 15 14 14 14 12 14 13 12 13 11 12 12 11 11 10 9 8 8 8 7 7 7 8 8 8 7 7 7 7 5 6 8 5
21 18 18 19 20 17 18 17 17 17 15 13 14 15 13 13 13 12 12 11 10 11 11 10 9 8 7 6 6 6 6 7 8 9 13 12 13 12 10 6 4 6 6
21 17 17 17 19 18 17 17 17 16 15 13 14 14 14 13 13 13 11 10 10 10 10 8 7 6 5 5 5 6 7 8 10 12 15 11 11 14 10 6 5 7 8
20 16 16 17 19 17 17 18 17 16 15 13 13 13 13 13 13 13 12 10 9 9 8 7 5 4 4 4 5 7 8 10 12 13 10 10 6 10 6 2 5 7 9
18 16 16 15 18 19 17 17 17 16 14 14 13 12 12 13 12 12 11 9 9 8 6 4 3 3 3 4 5 6 8 11 15 13 10 9 5 7 3 2 7 9 8
20 17 19 17 17 18 19 18 16 16 14 13 13 13 12 12 12 11 11 9 7 6 5 3 2 2 4 4 5 6 8 10 15 12 10 4 9 7 8 10 11 11 11
19 17 17 18 18 18 18 18 17 15 14 13 13 13 13 12 12 11 9 8 7 6 4 2 0 2 3 4 5 7 9 11 9 11 7 11 7 9 13 12 13 13 14
19 17 16 16 20 18 17 18 18 15 14 13 13 13 12 12 11 10 9 8 7 5 3 2 2 3 5 7 8 10 12 14 10 10 6 8 11 14 14 15 16 17 18
20 17 14 15 16 19 16 16 17 16 13 13 12 12 12 12 11 10 9 8 7 5 4 4 5 7 8 10 12 14 14 14 9 5 8 7 12 14 16 17 17 18 18
19 18 16 13 15 14 14 15 16 16 14 12 12 12 11 10 10 10 9 8 8 7 6 7 8 10 11 11 13 15 15 14 8 2 7 6 14 17 16 17 17 17 18
18 16 16 16 14 14 14 12 15 16 14 12 10 11 10 7 8 10 9 11 9 9 10 10 11 13 12 11 16 17 13 7 4 7 6 12 16 16 18 17 17 18 18
21 19 16 15 14 14 13 12 11 11 8 8 8 9 7 7 8 10 11 12 12 13 11 12 14 13 10 7 3 12 5 8 6 8 5 13 14 16 16 16 16 16 18
22 14 18 14 13 15 12 9 7 7 7 6 9 8 8 6 5 4 5 5 5 10 6 9 9 6 4 5 3 2 4 7 5 6 7 12 13 14 13 12 14 16 16
23 18 19 17 12 12 12 9 9 8 8 7 8 9 5 2 4 4 5 7 8 5 7 7 1 3 5 7 7 6 6 5 4 4 6 10 10 11 11 12 13 15 15
23 19 19 19 12 9 13 9 9 8 8 8 8 8 4 2 4 3 3 3 3 2 2 4 5 4 5 4 4 4 5 3 4 3 4 8 10 9 9 11 14 14 15
16 18 17 19 12 13 10 9 7 6 7 5 5 7 6 5 3 4 2 3 5 3 4 7 5 4 4 3 4 5 2 2 3 5 2 6 10 8 9 10 14 12 13
11 15 17 17 13 8 9 7 5 5 7 5 5 8 8 5 5 3 3 5 4 4 6 5 4 3 3 4 3 5 1 3 5 0 1 3 7 11 11 8 13 16 9
13 12 16 15 14 7 5 5 5 4 3 4 4 6 7 4 2 2 4 4 4 6 4 4 5 3 5 5 5 5 5 3 3 5 4 1 1 4 5 9 15 14 5
14 13 14 14 17 10 6 4 4 3 3 4 4 5 7 4 5 3 3 4 5 5 5 4 3 5 4 5 6 5 5 3 2 4 1 1 3 6 4 7 6 5 2
14 13 12 10 13 11 8 5 4 2 4 3 3 5 9 4 4 5 4 4 3 4 5 5 5 5 3 4 6 4 5 5 3 2 4 2 6 7 4 5 2 1 9
15 14 13 10 11 11 9 8 8 6 4 3 3 7 7 4 3 7 5 3 4 5 6 2 2 3 3 5 3 4 4 5 7 5 4 4 6 3 4 4 3 3 3
17 13 12 11 7 11 7 8 6 3 4 1 2 4 7 7 8 6 5 4 4 5 4 2 2 0 3 4 2 1 4 3 6 3 5 3 5 3 4 4 4 3 1
18 17 13 11 9 7 5 3 2 5 4 3 5 6 5 7 7 8 4 5 4 3 4 4 5 6 1 2 4 3 3 2 6 1 5 5 7 4 5 2 3 3 4
18 17 17 14 12 8 9 5 4 4 5 3 6 8 5 5 6 6 6 5 5 5 6 3 4 3 1 3 2 4 3 2 3 6 3 5 6 7 5 4 5 5 4
18 17 16 15 14 12 11 8 6 5 4 6 7 10 8 6 7 5 3 7 5 6 5 4 3 4 4 3 4 3 2 3 3 3 9 9 7 6 5 5 4 4 5
18 17 16 17 15 14 13 10 9 7 10 9 7 7 5 4 4 5 10 8 7 4 4 3 3 7 5 5 4 4 4 3 5 5 6 8 8 7 8 5 4 4 4
Wind_Direction
130 137 134 136 137 140 139 132 132 127 127 131 128 123 121 109 108 106 102 101 103 104 101 98 92 83 69 58 51 40 25 8 352 333 305 285 267 256 244 251 293 327 85
130 138 134 139 140 144 139 135 134 131 131 137 135 131 126 116 114 109 106 104 105 106 103 98 95 88 75 57 36 17 359 342 323 303 291 284 262 238 238 233 259 286 317
129 133 138 138 138 141 139 135 135 132 132 140 136 131 128 125 120 115 112 110 107 103 100 94 85 78 66 40 11 355 341 325 305 297 296 285 270 189 220 238 264 273 274
129 139 139 145 137 138 138 135 133 130 133 138 135 133 132 128 124 119 114 114 111 108 104 101 90 64 33 15 355 343 333 318 304 302 293 287 95 148 182 275 294 276 273
134 142 134 146 139 139 137 132 132 132 134 137 136 134 131 127 125 122 119 121 119 115 111 104 83 40 11 352 348 332 322 310 303 297 273 268 60 124 107 5 324 324 310
140 131 138 141 140 136 135 132 131 130 134 138 138 136 133 128 125 121 122 122 121 116 110 96 58 11 341 332 329 321 308 301 302 290 250 126 75 82 57 25 351 329 310
146 129 139 139 135 138 134 131 129 129 133 137 138 138 135 132 128 128 127 128 130 130 129 132 299 316 303 304 297 293 283 281 282 287 315 77 65 59 46 31 12 352 331
131 137 140 138 132 133 137 133 130 133 136 140 141 140 140 140 140 137 139 144 147 140 166 215 265 279 279 276 270 263 258 262 274 279 68 78 68 54 42 31 21 8 360
123 137 145 147 136 133 135 138 135 135 139 140 143 142 149 148 147 149 155 157 153 171 208 235 253 256 256 256 255 253 256 260 266 323 81 62 67 57 44 36 24 12 4
137 143 150 148 149 144 141 141 134 133 139 142 149 150 156 156 160 168 164 169 179 196 219 235 246 251 251 258 265 270 270 269 272 159 76 80 65 55 45 37 23 13 7
140 149 155 158 158 153 146 146 133 137 143 149 155 158 165 179 182 170 190 171 197 212 225 234 242 247 254 259 257 259 267 276 47 103 77 73 66 56 43 31 22 13 9
146 159 159 160 161 157 153 149 153 150 163 175 180 178 201 200 183 187 170 187 203 222 223 237 246 249 266 255 258 241 256 263 120 95 91 81 71 60 46 28 19 16 7
147 160 159 158 167 157 141 162 161 157 170 192 190 181 221 219 166 161 164 193 217 230 225 223 238 224 250 10 351 346 356 17 42 96 91 88 72 62 56 38 21 16 13
147 164 157 152 173 163 137 174 166 168 174 188 189 191 222 164 151 212 212 193 207 206 223 207 13 103 60 24 3 12 28 5 30 74 109 98 90 73 56 43 28 17 17
148 159 161 150 174 145 145 182 175 177 179 187 175 180 197 216 173 233 298 306 298 283 255 89 77 38 45 24 316 343 48 345 4 44 127 117 103 88 57 43 30 24 19
155 148 153 153 168 141 157 182 176 183 175 170 168 166 225 199 184 161 209 255 268 242 20 57 58 27 13 339 332 358 21 309 60 60 310 151 131 115 76 46 28 22 19
146 140 147 152 162 155 155 187 158 196 155 173 165 161 185 211 168 221 202 239 251 87 53 54 22 38 311 353 288 263 317 7 67 90 315 22 149 148 96 59 15 14 21
133 133 140 149 160 156 167 173 163 159 171 159 168 145 176 191 207 230 290 258 52 57 64 48 21 16 21 10 342 318 18 352 71 269 69 353 94 85 20 14 19 6 31
146 141 151 150 160 161 171 166 162 195 207 160 168 149 154 205 215 187 293 56 61 67 60 52 57 357 37 355 316 15 344 315 328 27 297 306 89 71 26 350 6 59 279
143 146 156 140 153 162 167 168 159 187 191 211 174 151 148 175 203 135 70 70 86 84 81 53 26 47 20 340 310 343 309 289 31 348 325 5 52 59 356 323 319 348 15
138 152 161 154 160 169 174 173 178 196 163 256 150 114 128 157 96 116 109 114 64 67 81 117 165 33 10 345 300 315 290 335 46 325 357 13 37 33 301 280 18 9 16
144 149 151 164 188 173 168 187 173 138 123 105 101 113 136 110 114 114 125 127 102 92 96 75 352 254 55 354 343 312 335 324 6 351 357 18 4 314 318 37 357 338 292
155 163 161 167 158 162 134 97 110 128 120 94 98 91 82 105 114 110 122 82 85 145 126 69 30 47 338 253 80 97 344 328 331 313 333 4 353 335 308 11 327 305 283
159 165 165 166 160 161 139 150 185 149 140 148 126 107 91 102 98 93 80 90 55 60 75 55 49 43 31 44 355 51 37 342 335 327 354 331 322 319 7 344 340 309 12
162 165 163 164 163 171 170 179 160 155 105 128 106 105 91 74 78 79 94 89 88 75 83 87 51 36 35 35 40 11 320 321 300 317 308 330 331 330 343 321 329 346 8
165 164 162 165 166 175 172 161 161 187 131 108 105 108 114 111 111 92 78 79 94 113 104 102 63 61 23 44 2 5 8 0 336 322 317 326 318 330 323 336 7 27 344